Hourly Data Report for October 19, 2019

All times are specified in Local Standard Time (LST). Add 1 hour to adjust for Daylight Saving Time where and when it is observed.

SEPT-ILES
QUEBEC
Current Station Operator: ECCC - MSC

50°13'00.000" N
66°15'00.000" W
52.60 m
7047914
71279
XZV

Download Data

Hourly Data (October 2019)
Hourly Data Report for October 19, 2019
TIME Temp Definition
°C
Dew Point Definition
°C
Rel Hum Definition
%
Wind Dir Definition
10's deg

Wind Spd Definition
km/h
Visibility Definition
km
Stn Press Definition
kPa
Hmdx Definition


Wind Chill Definition


Weather Definition


00:00 6.1 1.6 73 33 10   99.32     LegendNANA
01:00 5.6 1.6 75 32 6   99.38     LegendNANA
02:00 6.0 1.4 72 31 9   99.41     LegendNANA
03:00 5.3 1.0 74 31 9   99.48     LegendNANA
04:00 4.8 1.0 77 29 3   99.55     LegendNANA
05:00 4.8 0.6 74 30 9   99.61     LegendNANA
06:00 3.5 0.1 78 30 9   99.65     LegendNANA
07:00 4.2 0.4 76 30 10   99.75     LegendNANA
08:00 7.1 1.1 66 31 10   99.78     LegendNANA
09:00 7.9 0.3 59 34 20   99.82     LegendNANA
10:00 8.9 1.1 58 34 14   99.86     LegendNANA
11:00 9.2 0.6 55 33 17   99.89     LegendNANA
12:00 10.3 0.5 51 34 20   99.90     LegendNANA
13:00 10.1 0.3 50 33 21   99.94     LegendNANA
14:00 10.5 0.9 51 33 20   100.01     LegendNANA
15:00 10.2 -0.1 49 33 18   100.07     LegendNANA
16:00 9.1 0.4 55 34 15   100.18     LegendNANA
17:00 7.1 0.3 62 33 10   100.25     LegendNANA
18:00 5.9 -0.1 66 31 11   100.31     LegendNANA
19:00 5.2 -0.2 68 31 13   100.39     LegendNANA
20:00 5.2 -0.1 68 32 10   100.44     LegendNANA
21:00 5.1 0.4 72 31 11   100.45     LegendNANA
22:00 4.6 0.2 73 31 11   100.50     LegendNANA
23:00 3.8 -0.4 74 31 8   100.54     LegendNANA

Notes on Data Quality.

Legend

  • E = Estimated
  • M = Missing
  • NA = Not Available
Date modified: